COSMOS 2491 DEB, 44998

Orbit data source: Space-Track

COSMOS 2491 DEB, 44998 is space debris in LEO originally from a launch on Wed, 25 Dec 2013 UTC launched from the Plesetsk Missile And Space Complex (PKMTR). Debris objects in space refer to the collection of defunct objects orbiting the Earth. Examples of debris include non-operational satellites, rocket bodies, and fragments generated from explosions, collisions, or faulty payload assembly.

Loading next visibility...
Identifier
44998, 2013-076S
Orbit
LEO
Country
Flag of CISCIS
Related business
Manufacturer
TsNIIKhM
Mission
Spacecraft
Bus & Motor
Unknown
Mass
Unknown
Launch date (UTC)
2013-12-25 (12 years ago)
Launch vehicle
Unknown
Launch site
Plesetsk Missile And Space Complex (PKMTR)
Object type
Payload
Rocket body
Debris
Shape & HBR
Unknown shape, 0.1 m
Radar Cross Section
Small (<0.1 m²)

Expand to show TLE details & history
Last TLE update: 6 days ago

TLE from 6 days ago
0 COSMOS 2491 DEB
1 44998U 13076S   25281.26288096  .00001908  00000-0  98472-2 0  9990
2 44998  82.4677 275.2954 0101154  17.1506 343.2964 12.66371791265384
Epoch: 2025-10-08T06:18Z
TLE epoch observation values (Epoch: 2025-10-08T06:18:32.914Z)
Latitude
-0.00008°
Longitude
163.51831°
Altitude
1,324.214 km
Speed
7.23 km/s
True Right ascension
18h 21m 10s
True Declination
0° 00' 00"
Sunlit
Object was in daylight at epoch
Visualization orbit readout
Latitude
Unknown
Longitude
Unknown
Altitude
Unknown
Speed
Unknown
Apparent Right ascension
Unknown
Apparent Declination
Unknown
Sunlit
N/A
Visualization observer readout
Local Sidereal Time
19:03:39
Azimuth
Unknown
Elevation
Unknown
Doppler factor
Unknown
Orbital elements
Apogee altitude
1,472.693 km
Perigee altitude
1,315.455 km
Semi-major axis
7,772.211 km
Eccentricity
0.01012
Inclination
82.4677°
RAAN
275.2954°
Arg. of periapsis
17.1506°
True anomaly
342.95916°
Mean anomaly
343.2964°
Eccentric anomaly
343.12819°
Mean motion
3.16757 °/min
Orbital period
113.65 mins
BSTAR
0.0098472
Loading maneuver chart data...
Computing Atmospheric mass density...
Loading historical data...
Loading historical data...
Loading historical data...
Loading historical data...
Loading historical data...
Loading historical data...
Loading historical data...

Documentation

Showing up to 5 results
|